Simultaneous Nadir Overpasses (SNOs) Predictions

Prediction of SNOs between LANDSAT-8 and METOP-A Satellite Orbit:

Table of predicted SNOs for the next 14.0 days since TLE Epoch: 4/20/2019
Index Date (LANDSAT-8) Time (LANDSAT-8) Lat,Lon (LANDSAT-8) SZA (LANDSAT-8 ) Date (METOP-A) Time (METOP-A) Lat,Lon (METOP-A) SZA (METOP-A ) Distance(km) Time Diff (sec)
1 04/21/2019 12:21:03 -81.46,-139.93 107.79 04/21/2019 12:20:09 -81.46,-140.07 107.83 2.29 54
2 04/21/2019 13:10:29 81.46, 27.82 72.22 04/21/2019 13:10:48 81.46, 27.82 72.23 0.34 19
3 04/24/2019 07:55:17 -81.46, -73.51 108.71 04/24/2019 07:54:22 -81.46, -73.44 108.73 1.06 55
4 04/24/2019 08:44:43 81.46, 94.20 71.29 04/24/2019 08:45:02 81.46, 94.01 71.28 3.22 19
5 04/27/2019 03:29:31 -81.46, -7.12 109.62 04/27/2019 03:28:36 -81.46, -7.24 109.65 1.96 55
6 04/27/2019 04:18:57 81.46, 160.56 70.38 04/27/2019 04:19:15 81.46, 160.58 70.40 0.52 18
7 04/29/2019 23:03:44 -81.45, 59.23 110.50 04/29/2019 23:02:48 -81.46, 59.35 110.51 2.09 56
8 04/29/2019 23:53:09 81.47,-132.73 69.55 04/29/2019 23:53:27 81.46,-132.86 69.54 2.39 18
9 05/02/2019 18:37:57 -81.46, 125.94 111.30 05/02/2019 18:37:01 -81.46, 125.92 111.33 0.63 56




NCC Satellite Simultaneous Nadir Overpasses (SNOs) Prediction Service
